Location: Cosy Dell
(34.2789°N, 117.4537°W)
Time: 11:57:33
(UTC+00:00)

Cosmos 2369 Rocket - Pass Details

Date: 14 July 2020
Orbit: 830 x 851 km, 71.0° (Epoch: 09 August)

Event Time Altitude Azimuth Distance (km) Brightness Sun altitude
Rises 07:51:16 0° 328° (NNW) 3,381 6.1 -34.1°
Reaches altitude 10° 07:53:54 10° 319° (NW) 2,446 5.1 -34.1°
Enters shadow 07:56:29 24° 299° (WNW) 1,676 3.9 -34.1°
